This demonstration page uses our WeatherBlox Daily Observations layout. Learn more.

Left ArrowRight Arrow

Hourly Observations for September 18, 2015

Temp ( °F °C ) Dew Point ( °F °C ) Humidity (%) Winds ( mph kmh ) Pressure ( in mb ) Visibility ( mi km ) Precip ( " mm )
12:53 am 00:53 Clear 59 15 51 10.6 75 75 NNE 6 9 29.89 1012 10 16 0.00 0.00
1:53 am 01:53 Clear 57 13.9 51 10.6 81 81 NNE 8 13 29.89 1012 10 16 0.00 0.00
2:53 am 02:53 Clear 58 14.4 51 10.6 78 78 NE 6 9 29.88 1012 10 16 0.00 0.00
3:53 am 03:53 Clear 56 13.3 51 10.6 84 84 NE 10 17 29.86 1011 10 16 0.00 0.00
4:53 am 04:53 Cloudy 59 15 52 11.1 78 78 ENE 15 24 29.83 1010 10 16 0.00 0.00
5:53 am 05:53 Cloudy 60 15.6 53 11.7 78 78 NE 10 17 29.86 1011 10 16 0.00 0.00
6:53 am 06:53 Cloudy 60 15.6 52 11.1 75 75 NE 15 24 29.86 1011 10 16 0.00 0.00
7:21 am 07:21 Cloudy with Nearby Thunderstorms 59 15 53 11.7 81 81 NE 18 30 29.85 1011 10 16 0.00 0.03
7:36 am 07:36 Cloudy with Light Rain 58 14.4 54 12.2 87 87 NE 15 24 29.88 1012 10 16 0.00 0.03
7:53 am 07:53 Cloudy with Light Rain 58 14.4 54 12.2 87 87 N 16 26 29.91 1013 10 16 0.00 0.03
8:04 am 08:04 Cloudy with Nearby Thunderstorms 57 14 54 12 88 88 ENE 20 31 29.88 1012 6 10 0.00 0.00
8:16 am 08:16 Windy with Storms Likely 57 13.9 54 12.2 90 90 ENE 22 35 29.85 1011 8 13 0.03 0.76
8:46 am 08:46 Cloudy with Thunderstorms 57 14 54 12 88 88 NE 17 28 29.88 1012 4 6 0.00 0.00
8:53 am 08:53 Windy with Storms Likely 56 13.3 52 11.1 87 87 NNE 28 44 29.88 1012 9 14 0.04 1.02
9:00 am 09:00 Cloudy with Nearby Thunderstorms 55 12.8 51 10.6 87 87 NE 21 33 29.85 1011 10 16 0.00 0.03
9:10 am 09:10 Cloudy with Thunderstorms 55 13 48 9 77 77 ENE 7 11 29.94 1014 10 16 0.00 0.00
9:33 am 09:33 Cloudy with Nearby Thunderstorms 55 12.8 49 9.4 80 80 NE 18 30 29.94 1014 10 16 0.01 0.25
9:51 am 09:51 Cloudy 54 12 50 10 88 88 NE 17 28 29.91 1013 10 16 0.01 0.25
9:53 am 09:53 Cloudy 54 12.2 50 10 87 87 NE 14 22 29.91 1013 10 16 0.01 0.25
10:53 am 10:53 Cloudy 56 13.3 51 10.6 84 84 ENE 13 20 29.89 1012 10 16 0.00 0.00
11:53 am 11:53 Cloudy 59 15 54 12.2 83 83 N 10 17 29.96 1015 10 16 0.00 0.03
12:53 pm 12:53 Cloudy 64 17.8 55 12.8 73 73 N 14 22 29.97 1015 10 16 0.00 0.00
1:53 pm 13:53 Cloudy 64 17.8 53 11.7 68 68 N 17 28 29.98 1015 10 16 0.00 0.00
2:53 pm 14:53 Mostly Cloudy 66 18.9 52 11.1 61 61 NNE 14 22 29.96 1014 10 16 0.00 0.00
3:53 pm 15:53 Partly Cloudy 69 20.6 51 10.6 53 53 NNE 16 26 29.96 1014 10 16 0.00 0.00
4:53 pm 16:53 Sunny 69 20.6 51 10.6 53 53 NNE 15 24 29.97 1015 10 16 0.00 0.00
5:53 pm 17:53 Mostly Sunny 68 20 52 11.1 57 57 NNE 8 13 29.97 1015 10 16 0.00 0.00
6:53 pm 18:53 Sunny 66 18.9 52 11.1 61 61 NE 6 9 29.97 1015 10 16 0.00 0.00
7:53 pm 19:53 Clear 61 16.1 52 11.1 72 72 Calm 29.99 1016 10 16 0.00 0.00
8:53 pm 20:53 Clear 57 13.9 52 11.1 83 83 NNW 6 9 30.03 1017 10 16 0.00 0.00
9:53 pm 21:53 Mostly Cloudy 58 14.4 47 8.3 67 67 NNW 14 22 30.07 1018 10 16 0.00 0.00
10:53 pm 22:53 Clear 54 12.2 46 7.8 75 75 NW 13 20 30.10 1019 10 16 0.00 0.00
11:53 pm 23:53 Partly Cloudy 53 11.7 46 7.8 77 77 NNW 14 22 30.11 1020 10 16 0.00 0.00

Powered by AerisWeather